STARLINK-5595, 55765

Orbit data source: Space-Track

STARLINK-5595, 55765 is a payload satellite owned by SpaceX/Seattle (US) in LEO that was launched on Fri, 03 Mar 2023 UTC via an FALCON 9 launch vehicle from the Air Force Western Test Range (AFWTR). Payload-class satellites include a variety of spacecraft equipped with specific instruments for various scientific and technological missions. These include communications satellites like Starlink; space stations such as the ISS; scientific satellites like the Hubble; Earth observation satellites from companies like Planet Labs, Umbra, and HawkEye 360; GPS; miniature CubeSats for education and research; and military/defense satellites.

Loading next visibility...
Identifier
55765, 2023-028AA
Orbit
LEO
Country
Flag of USUS
Related business
Manufacturer
SpaceX/Seattle
Mission
Operational Commercial Communications
Bus & Motor
STARLINK, Unknown motor
Mass
305 kg wet, ~290 kg dry
Launch date (UTC)
2023-03-03 (3 years ago)
Launch vehicle
FALCON 9
Launch site
Air Force Western Test Range (AFWTR)
Object type
Payload
Rocket body
Debris
Shape & HBR
Box + 1 Pan, 10.1 m
Radar Cross Section
11.087 m², Large (>1 m²)

Expand to show TLE details & history
Last TLE update: 2 days ago

TLE from 2 days ago
0 STARLINK-5595
1 55765U 23028AA  26171.39625457 -.00000158  00000-0 -54777-5 0  9992
2 55765  69.9999 325.6539 0002695 274.3320  85.7531 14.98337834181916
Epoch: 2026-06-20T09:30Z
TLE epoch observation values (Epoch: 2026-06-20T09:30:36.394Z)
Latitude
-0.00006°
Longitude
-85.60924°
Altitude
574.317 km
Speed
7.574 km/s
True Right ascension
21h 42m 36s
True Declination
0° 00' 00"
Sunlit
Object was in full shadow at epoch
Visualization orbit readout
Latitude
Unknown
Longitude
Unknown
Altitude
Unknown
Speed
Unknown
Apparent Right ascension
Unknown
Apparent Declination
Unknown
Sunlit
N/A
Visualization observer readout
Local Sidereal Time
21:25:35
Azimuth
Unknown
Elevation
Unknown
Doppler factor
Unknown
Orbital elements
Apogee altitude
571.852 km
Perigee altitude
568.107 km
Semi-major axis
6,948.117 km
Eccentricity
0.00027
Inclination
69.9999°
RAAN
325.6539°
Arg. of periapsis
274.332°
True anomaly
85.7839°
Mean anomaly
85.7531°
Eccentric anomaly
85.7685°
Mean motion
3.74751 °/min
Orbital period
96.06 mins
BSTAR
-0.0000054777
Loading maneuver chart data...
Computing Atmospheric mass density...
Loading historical data...
Loading historical data...
Loading historical data...
Loading historical data...
Loading historical data...
Loading historical data...
Loading historical data...

Documentation

Showing up to 5 results
|